Location: El Bakhil
(32.7726°N, 5.5387°W)
Time: 01:47:57
(UTC+00:00)

O/OREOS (USA 219) - Visible Passes

Search period start: 05 August 2021 00:00
Search period end: 15 August 2021 00:00
Orbit: 621 x 646 km, 72.0° (Epoch: 22 May)

Date Brightness Start Highest point End Pass type
(mag) Time Alt. Az. Time Alt. Az. Time Alt. Az.
05 Aug ? 22:52:52 10° N 22:53:50 15° N 22:53:50 15° N visible
06 Aug ? 23:14:35 10° NNW 23:15:23 15° NNW 23:15:23 15° NNW visible
07 Aug ? 21:58:34 10° NNE 21:59:32 13° NNE 21:59:32 13° NNE visible
07 Aug ? 23:36:56 10° NW 23:36:59 10° NW 23:36:59 10° NW visible
08 Aug ? 22:19:35 10° N 22:21:09 20° N 22:21:09 20° N visible
09 Aug ? 22:41:24 10° NNW 22:42:48 20° NNW 22:42:48 20° NNW visible
10 Aug ? 21:25:10 10° NNE 21:27:02 17° NE 21:27:02 17° NE visible
10 Aug ? 23:03:51 10° NW 23:04:29 13° NW 23:04:29 13° NW visible
11 Aug ? 21:46:20 10° N 21:48:45 28° NNE 21:48:45 28° NNE visible
12 Aug ? 22:08:13 10° NNW 22:10:30 29° NNW 22:10:30 29° NNW visible
13 Aug ? 20:51:48 10° NNE 20:54:51 21° NE 20:54:51 21° NE visible
13 Aug ? 22:30:48 10° NW 22:32:18 18° WNW 22:32:18 18° WNW visible
14 Aug ? 21:13:05 10° N 21:16:41 45° NNE 21:16:41 45° NNE visible
